Preview of NWS' New Version of Forecast
This preview is not operational and should not be used for support decisions.

Regional Weather Roundup (RWR)

Issued by Gray - Portland, ME (GYX)

                            
000
ASUS41 KGYX 172005
RWRGYX
WEATHER ROUNDUP FOR MAINE AND NEW HAMPSHIRE
NATIONAL WEATHER SERVICE GRAY ME
300 PM EST THU JAN 17 2019

MEZ002-005-006-010-012-015-018-020-021-024-026-027-029-172100-
MAINE
  
CITY           SKY/WX    TMP DP  RH WIND       PRES   REMARKS
PORTLAND       FAIR      22  -5  30 MISG      30.34S                  
SANFORD        FLURRIES  23  -7  26 W10       30.33S WCI  12          
BAR HARBOR     FAIR      16  -7  35 N3        30.35R                  
WISCASSET      FAIR      20  -9  27 CALM      30.36S                  
ROCKLAND       FAIR      18  -8  31 W7        30.35R                  
FRYEBURG       FAIR      22 -12  22 CALM      30.29S                  
LEWISTONAUBURN FAIR      20  -8  28 NW5       30.32S                  
AUGUSTA        FAIR      17 -11  28 NW9       30.33R                  
WATERVILLE     FAIR      15  -8  35 MISG      30.30S                  
BANGOR         FAIR      15  -7  37 VRB5      30.33S                  
GREENVILLE       N/A      5 -13  43 NW9       30.17S                  
MILLINOCKET    FAIR       8 -10  43 W9        30.31S                  
HOULTON        FAIR       5 -12  45 NW7       30.28R                  
PRESQUE ISLE   FAIR       4 -12  48 W7        30.28R                  
FRENCHVILLE    FAIR       0 -13  54 W5        30.20S                  
CARIBOU        FAIR       2 -15  45 W5        30.26R                  
$$

NHZ002-005-008-009-011-012-014-172100-
NEW HAMPSHIRE
  
CITY           SKY/WX    TMP DP  RH WIND       PRES   REMARKS
PORTSMOUTH     PTSUNNY   25 -11  19 W5        30.33R                  
ROCHESTER      FAIR      22  -9  25 NW7       30.32R                  
NASHUA         FAIR      28  -3  26 VRB7      30.33F                  
MANCHESTER     PTSUNNY   26  -6  24 CALM      30.32S                  
CONCORD        FAIR      22  -2  35 N5        30.33S                  
LACONIA        FAIR      18  -5  36 W7        30.31F                  
PLYMOUTH       FAIR      18  -9  30 W9        30.31F                  
BERLIN         FAIR      13  -9  37 VRB3      30.25F                  
WHITEFIELD     FAIR      12  -9  38 CALM      30.27F                  
JAFFREY        FAIR      23  -8  25 W3        30.26F                  
KEENE          FAIR      24  -5  27 NE3       30.30F                  
LEBANON        FAIR      17  -4  39 CALM      30.31F                  
MT WASHINGTON  NOT AVBL                                               
$$

VTZ005-007-008-172100-
VERMONT
  
CITY           SKY/WX    TMP DP  RH WIND       PRES   REMARKS
ST JOHNSBURY     N/A     13  -8  39 MISG      30.30F                  
MONTPELIER     FAIR      13  -4  46 CALM      30.29F                  
BURLINGTON     FAIR      14  -4  44 CALM      30.34F                  
$$

MAZ007-012-024-CTZ003-RIZ002-NYZ038-NYZ072-172100-
SOUTHERN NEW ENGLAND AND NY
  
CITY           SKY/WX    TMP DP  RH WIND       PRES   REMARKS
BOSTON         PTSUNNY   27  -1  30 E7        30.35F                  
WORCESTER      FAIR      25  -6  25 VRB3      30.26F                  
NANTUCKET      FAIR      28  10  46 N8        30.35S                  
PROVIDENCE     PTSUNNY   29  -1  27 E7        30.34F                  
HARTFORD       PTSUNNY   28  -7  21 CALM      30.33S                  
ALBANY         PTSUNNY   23  -5  29 CALM      30.34F                  
NEW YORK CITY  PTSUNNY   31   1  28 VRB6      30.33F                  
$$

ANZ081-ANZ082-ANZ150-NHZ014-MEZ023>029-172100-
COASTAL MARINE OBSERVATIONS
  
STATION/POSITION TIME  TEMP    WIND        PRES    WAVE
                       AIR SEA DIR/SP/G            HT/PER
                 (UTC) (F)     (DEG/KT/KT) (MB)    (FT/S)
MOUNT DESERT ROC 1900   17     310/ 14/ 17 1027.1R
MATINICUS ROCK   1900   20     300/ 10/ 12 1027.2R
ISLE OF SHOALS   1900   23     290/  5/  9 1027.1F
JEFFREYS LEDGE   1938      43                N/A     2/ 4
CASHES LEDGE BUO 1950   24 40              1028.3F   3/ 5
$$

.............KEY..............
   WCI - WIND CHILL
   TC  - TEMPERATURE IN CELSIUS
   VSB - VISIBILITY IN MILES
   HX  - HEAT INDEX
   FAIR- INDICATES FEW OR NO CLOUDS BELOW 12,000 FT, WITH NO 
         SIGNIFICANT WEATHER AND/OR OBSTRUCTIONS TO VISIBILITY.